TIME,DELAY(SENSOR),PRES,OXYGEN,RAWTEMP,T(OPTODE),TCPHASE,FLUOR,BETA(BETA700),BETA(BETA412),BETA(BETA440),CDOM,C(CSC),ED(ED412.20),ED(ED444.00),ED(ED489.60),ED(ED554.30),LU(LU412.10),LU(LU443.90),LU(LU489.70),LU(LU554.70),COMP,TILTX,TILTY,CHECK
1358045503,5809,883.6400146484375000,36.2185592651367200,561.5554199218750000,4.4376811981201170,56.1023902893066400,54,98,100,78,81,15551,0,0,0,0,2147124745,2147768530,2147570413,2147565732,2172,3,13,11452
1358049099,5809,961.3200073242188000,41.3732109069824200,568.1276855468750000,4.2337279319763180,55.3886985778808600,54,98,100,79,81,15550,0,0,0,0,2147123483,2147773129,2147572068,2147568201,3431,2,13,23182
1358052699,5811,970.4600219726562000,43.0900611877441400,568.8975830078125000,4.2098121643066410,55.1467399597168000,55,106,100,78,82,15551,0,0,0,0,2147125449,2147771885,2147570505,2147571053,3397,2,13,40090
1358056299,5808,974.7899780273438000,42.9026908874511700,570.1707153320312000,4.1702580451965330,55.1874313354492200,55,100,100,78,82,15549,0,0,0,0,2147123172,2147774665,2147573147,2147565933,954,3,13,1815
1358059899,5811,976.9299926757812000,42.6456489562988300,571.1829833984375000,4.1387920379638670,55.2378196716308600,54,99,100,78,82,15546,0,0,0,0,2147123812,2147772946,2147572416,2147567305,295,2,13,29476
1358063499,5808,980.5300292968750000,42.5172996520996100,571.0878295898438000,4.1417498588562010,55.2577590942382800,55,99,100,81,81,15548,0,0,0,0,2147120484,2147770505,2147573266,2147571446,127,3,13,42311
1358067099,5809,981.5700073242188000,42.2449989318847660,570.6226806640625000,4.1562099456787110,55.2881202697753900,56,101,100,78,82,15548,0,0,0,0,2147121636,2147771648,2147578139,2147568384,3313,2,13,1290
1358070699,5809,989.5700073242188000,42.2207107543945300,570.7921142578125000,4.1509418487548830,55.2950096130371100,55,98,100,78,82,15546,0,0,0,0,2147122285,2147780086,2147573174,2147566811,122,3,13,2487
1358074299,5808,997.6500244140625000,41.9209594726562500,569.9677124023438000,4.1765651702880860,55.3275299072265600,55,98,101,77,83,15544,0,0,0,0,2147122678,2147773595,2147571291,2147566153,223,3,13,15102
1358077899,5808,991.7500000000000000,41.6334800720214840,570.0457153320312000,4.1741428375244140,55.3779182434082000,55,98,100,78,82,15546,0,0,0,0,2147121225,2147773632,2147572288,2147566756,154,3,13,32346
1358081499,5809,981.4899902343750000,41.9092483520507800,571.0333862304688000,4.1434421539306640,55.3480491638183600,55,99,101,79,82,15547,0,0,0,0,2147123638,2147774016,2147570560,2147568685,971,2,13,9417
1358085099,5810,979.4400024414062000,42.5036697387695300,571.9000244140625000,4.1165008544921875,55.2643699645996100,56,98,100,78,82,15543,0,0,0,0,2147121600,2147773632,2147574089,2147567661,434,2,13,61866
1358088699,5810,978.9600219726562000,43.0690803527832000,572.3734741210938000,4.1017799377441410,55.1884994506835940,55,100,100,77,83,15546,0,0,0,0,2147124150,2147776219,2147574573,2147567744,3500,3,13,35614
1358092299,5809,975.0999755859375000,42.8135604858398440,572.4284057617188000,4.1000728607177730,55.2267913818359400,55,98,100,79,83,15543,0,0,0,0,2147124498,2147771931,2147576027,2147568941,773,2,13,51525
1358095899,5808,976.4199829101562000,42.9718017578125000,573.2340698242188000,4.0750160217285160,55.2111701965332000,55,99,101,78,83,15543,0,0,0,0,2147124123,2147772178,2147575049,2147568886,666,2,13,428
1358099499,5812,989.3499755859375000,43.0266418457031250,572.0695800781250000,4.1112289428710940,55.1899909973144500,55,99,99,78,82,15537,0,0,0,0,2147122916,2147777490,2147571584,2147570176,3555,2,13,21001
1358103099,5807,988.8800048828125000,42.3231582641601560,571.7286987304688000,4.1218280792236330,55.2900810241699200,56,101,100,79,82,15525,0,0,0,0,2147122011,2147777563,2147574518,2147572160,179,2,13,13028
1358106699,5805,993.0599975585938000,42.0754318237304700,570.5969238281250000,4.1570091247558590,55.3138618469238300,55,101,101,79,81,15517,0,0,0,0,2147119305,2147772928,2147576731,2147566866,186,2,13,57235
1358110299,5808,994.9600219726562000,42.2825584411621100,570.9614868164062000,4.1456761360168460,55.2918395996093750,55,98,100,80,82,15508,0,0,0,0,2147122267,2147767862,2147573110,2147569892,7,2,13,26387
1358113899,5808,989.3800048828125000,41.7675514221191400,571.0056152343750000,4.1443080902099610,55.3674392700195300,55,98,100,78,82,15504,0,0,0,0,2147123812,2147769883,2147575533,2147569152,3142,3,13,20226
1358117499,5812,995.1500244140625000,41.8826904296875000,570.9589233398438000,4.1457581520080570,55.3496017456054700,55,98,101,78,82,15508,0,0,0,0,2147123721,2147769737,2147575780,2147567561,3447,2,13,8107
1358121099,5806,997.6799926757812000,42.0647392272949200,570.7409057617188000,4.1525340080261230,55.3201599121093750,55,98,100,78,82,15508,0,0,0,0,2147121828,2147769728,2147571876,2147567561,29,3,13,46073
1358124699,5811,993.7899780273438000,41.9179191589355500,571.0341186523438000,4.1434230804443360,55.3465614318847660,55,99,100,78,82,15509,0,0,0,0,2147124169,2147767899,2147574820,2147568941,11,2,13,1542
1358128299,5809,996.2500000000000000,41.9709091186523440,570.9349975585938000,4.1465020179748535,55.3344001770019500,54,98,99,78,82,15508,0,0,0,0,2147124004,2147770514,2147577682,2147568073,168,2,13,27615
1358131899,5809,993.3900146484375000,41.8258399963378900,570.9744873046875000,4.1452732086181640,55.3535308837890600,54,98,100,78,81,15505,0,0,0,0,2147122459,2147771245,2147570413,2147571145,3539,2,13,556
1358135499,5810,992.1900024414062000,41.2980003356933600,571.3911743164062000,4.1323199272155760,55.4365310668945300,55,97,99,78,83,15508,0,0,0,0,2147127396,2147772580,2147576283,2147570413,116,3,13,48458
1358139099,5810,984.5300292968750000,41.5807991027832000,571.8399047851562000,4.1183719635009770,55.4054985046386700,54,98,100,77,82,15498,0,0,0,0,2147121746,2147772992,2147576521,2147565824,2905,2,13,2229
1358142699,5810,993.9799804687500000,41.5319519042968750,571.3541870117188000,4.1334710121154785,55.4015617370605500,55,97,102,77,83,15495,0,0,0,0,2147125476,2147777051,2147572973,2147572406,3411,3,13,5393
1358146299,5810,993.6099853515625000,42.2777214050293000,571.1452026367188000,4.1399688720703125,55.2935485839843750,56,99,101,77,81,15497,0,0,0,0,2147124571,2147769161,2147577179,2147568722,3427,3,13,28003
1358149899,5811,998.5399780273438000,42.1299209594726560,570.9318237304688000,4.1466031074523930,55.3090705871582000,55,98,101,77,81,15495,0,0,0,0,2147124864,2147770624,2147575232,2147569737,284,2,13,23442
1358153499,5810,1000.6699829101562000,42.0674514770507800,570.3950805664062000,4.1632819175720215,55.3167610168457000,56,98,100,78,83,15497,0,0,0,0,2147124525,2147770898,2147574902,2147570157,146,3,13,35637
1358157099,5808,994.4199829101562000,41.8195800781250000,571.3792114257812000,4.1326961517333980,55.3575515747070300,55,97,101,78,82,15490,0,0,0,0,2147126363,2147769161,2147571254,2147570971,129,3,13,43439
1358160699,5809,992.5100097656250000,42.7084693908691400,572.3322753906250000,4.1030621528625490,55.2386093139648440,55,98,100,78,81,15488,0,0,0,0,2147123629,2147770029,2147571364,2147567286,3503,3,13,30074
1358164299,5809,992.2899780273438000,43.0653686523437500,572.3917846679688000,4.1012082099914550,55.1882400512695300,54,153,100,77,82,15490,0,0,0,0,2147124452,2147766125,2147575881,2147569654,165,3,13,30116
1358167899,5809,992.5100097656250000,43.5675888061523440,572.4392700195312000,4.0997328758239750,55.1196403503418000,55,101,102,77,82,15491,0,0,0,0,2147121526,2147766701,2147572662,2147567478,491,3,13,60427
1358171499,5811,989.5000000000000000,43.4729385375976560,572.9462280273438000,4.0839691162109375,55.1368598937988300,55,97,100,78,84,15490,0,0,0,0,2147124434,2147773467,2147571181,2147567899,3393,3,13,26363
1358175099,5809,991.7199707031250000,42.9201812744140600,573.0349121093750000,4.0812110900878910,55.2181205749511700,55,100,101,79,82,15489,0,0,0,0,2147125531,2147767981,2147572150,2147568265,85,2,13,65066
1358178699,5810,991.9699707031250000,43.0235290527343750,572.3853759765625000,4.1014080047607420,55.1948699951171900,55,101,101,79,81,15487,0,0,0,0,2147122870,2147764251,2147571885,2147564251,52,3,13,19388
1358182299,5810,984.3900146484375000,42.8375282287597660,573.1660766601562000,4.0771288871765140,55.2284507751464840,54,102,100,78,83,15489,0,0,0,0,2147124900,2147771309,2147575542,2147565092,203,3,13,60769
1358185899,5811,984.5399780273438000,43.1688919067382800,573.8859252929688000,4.0547409057617190,55.1943092346191400,54,100,100,78,83,15488,0,0,0,0,2147124854,2147773833,2147580516,2147571830,473,3,13,7498
1358189499,5811,989.2899780273438000,43.3732910156250000,573.1173706054688000,4.0786437988281250,55.1567115783691400,55,98,101,78,82,15484,0,0,0,0,2147123995,2147770587,2147574381,2147567945,3488,3,13,10970
1358190956,5813,995.9199829101562000,43.2495498657226560,573.0225219726562000,4.0815958976745605,55.1715202331543000,55,100,101,78,83,15489,0,0,0,0,2147125394,2147771666,2147577270,2147566601,47,3,13,26914
